Wind_Speed
5 6 6 6 6 6 6 5 4 4 3 2 1 1 0 0 1 2 2 2 2 3 3 4 5 5 5 5 5 5 5 5 5 5 5 6 7 7 7 7 7 7 7
6 5 6 6 6 6 5 5 4 4 3 2 1 1 1 1 2 2 3 3 3 4 5 5 5 5 6 6 6 6 6 6 6 6 6 7 8 8 9 9 9 9 9
5 6 6 6 6 5 5 4 4 4 3 2 1 1 1 2 3 3 4 4 4 5 5 5 6 6 7 7 7 7 7 7 7 7 8 9 9 10 10 9 9 9 10
5 5 5 5 5 4 4 3 3 3 2 0 1 2 2 3 3 4 5 5 5 6 6 6 6 7 7 7 7 8 8 8 8 9 9 9 10 10 9 10 10 10 11
4 4 4 4 4 3 3 2 2 2 1 1 1 2 2 3 4 4 5 5 5 6 6 7 7 7 8 8 8 8 8 9 9 9 9 10 10 10 10 10 11 11 12
4 4 3 2 2 2 2 2 1 1 1 2 2 3 3 3 4 4 5 5 5 5 6 7 7 7 7 8 8 9 9 9 9 9 9 10 10 11 11 12 13 13 12
4 2 2 2 2 3 2 1 1 1 2 2 3 3 4 4 4 4 5 6 7 7 7 7 7 8 8 8 9 9 9 10 10 11 11 12 12 12 12 12 13 14 14
4 3 2 2 3 3 2 2 2 3 3 3 4 4 5 5 5 5 6 7 8 7 8 8 8 8 9 9 10 10 9 10 10 11 12 13 13 13 14 14 14 14 14
4 3 3 2 2 3 3 4 4 4 4 4 5 5 6 5 6 6 6 7 8 8 8 9 9 9 9 9 10 10 10 11 11 12 13 13 12 12 13 14 14 14 15
4 3 3 2 3 3 4 5 5 6 6 6 6 6 6 6 6 7 7 8 9 9 10 10 10 10 9 10 11 11 11 11 11 12 13 13 13 13 13 14 15 15 15
4 3 3 4 4 4 5 5 6 6 7 7 7 7 7 7 8 8 9 9 10 10 11 11 10 10 11 11 11 11 11 11 12 12 13 13 14 14 14 15 15 15 15
4 4 4 5 5 6 6 7 7 7 7 7 8 8 8 9 9 10 10 11 11 12 12 11 12 12 11 12 12 12 12 12 12 13 13 13 14 14 14 14 15 15 15
6 6 6 6 6 7 8 8 8 8 8 9 9 9 10 10 11 11 12 12 13 13 12 12 13 12 12 12 12 13 13 13 13 14 14 14 14 15 14 15 15 15 15
7 7 7 7 7 8 9 9 9 9 10 10 10 11 11 11 12 12 13 13 13 13 13 13 14 13 12 12 13 13 13 14 13 14 14 14 14 15 15 15 15 16 16
7 7 7 8 8 9 10 10 10 10 11 11 11 11 12 12 12 13 14 14 13 13 13 13 14 13 13 13 14 14 15 15 15 14 14 14 15 15 16 16 16 16 17
8 8 8 8 9 9 9 9 10 10 10 11 11 11 12 12 12 13 14 14 14 13 14 14 14 13 13 14 14 15 15 15 15 15 15 16 16 16 17 17 17 17 18
8 9 8 8 9 9 9 10 10 10 11 11 11 12 12 13 13 14 14 14 15 15 15 15 15 15 15 15 15 16 16 16 16 16 16 16 16 16 16 17 17 18 18
10 10 9 9 9 10 10 10 10 11 12 12 12 13 13 14 15 15 15 16 16 15 15 16 16 16 16 16 17 18 18 18 18 17 17 17 18 18 19 19 19 19 20
10 10 10 10 10 11 11 12 11 11 13 13 14 14 14 15 15 16 17 17 17 17 17 17 17 17 18 18 19 19 19 20 19 19 18 19 19 20 20 20 21 20 20
11 11 11 12 12 12 12 13 13 13 14 14 15 16 16 16 17 17 18 19 19 19 19 19 19 19 19 20 21 21 21 21 20 21 21 21 21 21 21 21 21 21 22
12 12 12 12 13 13 14 14 14 15 16 16 17 18 18 19 18 18 18 19 21 21 21 21 21 21 21 21 22 22 22 22 22 22 22 22 22 22 22 22 23 23 23
13 14 14 14 14 15 15 16 16 17 17 18 19 19 19 20 20 20 21 21 21 22 22 22 22 22 22 22 23 23 23 24 24 24 24 24 24 23 23 23 24 24 24
16 15 16 15 15 15 16 17 18 18 19 19 20 21 21 21 21 22 22 23 22 23 23 23 24 24 24 24 24 24 24 25 26 25 25 25 25 25 25 25 26 26 26
18 17 17 17 17 17 17 18 19 20 21 21 22 22 23 23 23 23 24 24 24 24 25 25 24 24 25 25 26 26 26 26 26 25 26 26 26 26 26 26 27 27 27
19 19 19 19 19 19 20 20 21 22 23 24 24 24 24 24 24 25 25 25 26 26 26 27 26 26 26 26 26 27 26 27 27 27 27 27 27 27 27 28 28 28 27
21 21 21 21 21 22 22 23 24 25 25 25 26 25 25 26 26 26 26 27 27 27 28 28 28 27 27 27 27 27 27 27 27 27 28 28 28 28 27 28 28 28 28
Wind_Direction
140 144 146 155 159 159 159 152 150 159 159 156 182 178 166 301 340 356 332 326 321 312 302 295 291 289 300 316 312 314 311 308 304 301 290 289 289 289 287 286 286 281 278
126 136 138 147 156 160 150 138 140 139 146 147 174 202 229 311 335 334 332 316 307 303 298 292 292 300 306 309 308 305 310 307 305 303 299 293 292 292 290 287 285 280 279
123 124 128 133 143 149 146 139 138 139 142 151 196 289 298 319 324 326 322 317 311 310 312 295 294 302 304 305 306 305 300 300 300 300 297 291 294 292 284 285 288 285 282
119 120 117 119 127 143 144 134 128 130 123 117 280 303 304 304 316 325 323 316 311 308 305 302 298 299 301 304 306 307 305 302 298 298 299 294 294 294 286 284 285 288 287
105 111 112 114 119 130 135 125 128 117 65 15 325 309 303 304 316 325 330 326 318 310 307 305 299 301 302 303 306 310 311 309 303 303 296 292 289 287 286 283 284 285 285
94 100 97 107 110 108 114 103 93 61 355 348 324 317 310 307 313 320 324 323 327 326 324 319 314 313 314 308 305 305 305 307 305 303 298 295 293 289 286 282 283 284 284
79 85 79 81 82 76 71 41 360 338 323 322 318 317 312 309 310 316 321 322 319 320 323 320 318 315 312 307 305 305 304 305 305 302 299 293 289 289 287 286 287 286 285
58 57 67 65 57 41 23 5 352 337 327 320 315 311 305 306 311 312 316 319 318 321 321 320 318 316 314 312 309 306 305 303 304 304 303 297 290 288 287 288 289 288 286
48 48 48 43 22 7 355 357 351 346 338 333 324 316 311 311 312 315 316 318 320 323 322 320 319 316 313 313 313 309 305 303 303 306 305 301 296 293 292 290 289 290 286
33 30 28 16 1 351 342 336 340 341 334 331 327 320 318 319 317 321 322 317 319 321 319 317 317 316 315 314 313 313 311 307 306 306 305 302 295 291 291 292 291 291 288
9 9 7 2 358 354 345 339 337 337 335 335 335 335 330 322 321 318 316 313 313 314 315 314 313 313 311 310 311 311 309 307 305 304 303 300 296 293 293 293 292 292 293
4 357 350 351 348 343 339 335 332 332 332 333 335 334 330 326 326 322 315 310 311 313 314 314 313 312 310 307 308 310 310 309 309 307 305 301 298 298 300 300 296 294 294
356 350 339 338 337 335 330 326 322 324 326 326 327 326 325 322 322 320 314 312 312 312 312 313 314 312 310 307 308 310 311 311 310 309 308 305 301 303 302 301 298 294 294
353 349 341 336 331 329 326 320 316 318 320 321 322 322 321 319 320 319 317 314 313 310 309 310 313 312 310 308 308 310 309 309 309 308 308 308 307 306 306 304 301 296 295
353 350 346 340 335 330 329 324 319 317 317 320 321 319 317 319 320 320 321 319 317 316 313 311 311 311 307 306 306 306 307 307 306 307 308 308 309 310 308 307 302 298 296
349 346 341 338 337 335 332 331 330 329 326 323 322 321 321 319 318 318 320 321 318 316 315 313 309 306 304 303 304 305 305 305 305 303 303 305 305 308 308 305 302 300 298
344 340 332 330 333 336 335 334 332 330 330 329 326 322 321 320 319 319 319 319 316 315 314 313 309 305 304 303 304 305 305 305 305 303 303 304 304 305 306 305 304 302 300
335 334 328 326 328 330 330 328 326 327 328 328 326 323 320 319 318 317 317 317 315 314 313 313 311 307 305 304 305 305 305 305 303 301 301 301 300 300 300 301 301 302 301
330 327 325 323 323 326 325 325 321 322 326 326 326 324 320 316 314 314 314 313 311 311 310 309 309 307 306 305 304 304 303 303 303 301 301 300 298 298 300 299 300 301 300
327 325 320 321 320 322 321 321 321 319 320 320 320 321 319 314 310 310 310 309 309 308 307 306 306 304 303 302 302 302 302 302 302 301 300 300 299 299 298 298 299 299 299
316 316 316 315 316 316 315 314 316 315 315 317 318 318 318 315 308 308 310 310 308 307 306 305 304 302 301 301 302 302 301 300 301 300 300 300 300 300 299 301 302 301 299
306 308 308 309 312 311 308 307 308 309 310 311 313 314 314 313 311 311 311 311 311 311 309 307 305 302 300 300 301 301 300 300 301 301 301 301 302 300 300 300 301 301 299
299 300 300 301 304 306 305 303 303 304 307 310 311 311 311 311 310 310 311 310 309 309 309 309 308 307 303 302 302 302 301 301 301 301 301 301 301 301 300 300 300 300 300
294 295 296 297 299 301 300 300 301 303 304 306 308 308 308 307 307 308 309 309 308 307 308 308 309 309 307 303 302 301 302 301 301 301 300 300 301 300 299 299 300 300 300
289 290 292 294 295 297 297 298 298 300 301 303 304 305 305 305 304 304 305 306 305 305 306 307 307 307 307 304 301 300 300 300 300 301 300 300 300 300 300 301 301 301 300
286 287 289 291 292 293 294 296 297 298 299 300 301 302 303 303 303 304 304 304 303 301 301 303 304 304 304 302 300 300 299 299 300 300 300 299 300 300 300 300 300 299 299
Height
5883 5884 5885 5886 5886 5887 5888 5888 5889 5890 5890 5891 5892 5892 5892 5892 5892 5893 5893 5892 5892 5892 5892 5893 5893 5893 5892 5892 5892 5892 5892 5892 5892 5891 5892 5891 5891 5891 5891 5891 5891 5891 5891
5884 5885 5886 5886 5887 5888 5888 5889 5890 5890 5891 5892 5892 5892 5892 5892 5892 5892 5892 5892 5892 5892 5892 5892 5892 5892 5891 5891 5891 5891 5891 5891 5890 5890 5890 5890 5890 5889 5889 5889 5889 5889 5889
5885 5886 5886 5887 5887 5888 5889 5889 5890 5891 5892 5892 5892 5892 5892 5892 5892 5892 5892 5892 5892 5892 5891 5891 5891 5891 5890 5890 5889 5889 5889 5889 5889 5889 5888 5888 5887 5887 5887 5887 5887 5887 5886
5886 5887 5887 5888 5888 5889 5889 5890 5890 5891 5892 5892 5892 5892 5892 5892 5892 5892 5891 5891 5891 5891 5890 5890 5890 5889 5889 5889 5888 5888 5888 5887 5887 5887 5886 5886 5885 5885 5885 5885 5885 5884 5884
5888 5889 5889 5889 5889 5890 5890 5891 5891 5891 5892 5892 5892 5892 5892 5892 5891 5891 5891 5890 5890 5889 5889 5888 5888 5888 5888 5887 5887 5886 5886 5885 5885 5884 5884 5883 5883 5883 5882 5882 5882 5882 5881
5889 5890 5890 5890 5891 5891 5891 5891 5891 5891 5892 5892 5892 5891 5891 5891 5891 5890 5890 5890 5889 5888 5888 5887 5887 5886 5886 5886 5885 5885 5884 5883 5883 5882 5881 5881 5880 5880 5880 5879 5879 5879 5878
5891 5891 5891 5891 5892 5892 5892 5892 5892 5892 5892 5892 5891 5891 5891 5890 5890 5890 5889 5889 5888 5887 5886 5886 5885 5885 5884 5884 5883 5883 5882 5881 5880 5880 5879 5878 5878 5877 5877 5876 5876 5875 5875
5892 5892 5892 5892 5892 5893 5892 5892 5892 5892 5892 5891 5891 5891 5890 5890 5889 5889 5888 5887 5886 5885 5884 5884 5884 5883 5882 5882 5881 5880 5879 5879 5878 5877 5876 5875 5875 5874 5874 5873 5872 5872 5871
5893 5893 5893 5893 5893 5893 5893 5893 5892 5892 5892 5891 5891 5891 5890 5889 5888 5888 5887 5886 5885 5884 5883 5883 5882 5882 5881 5880 5879 5878 5877 5876 5875 5874 5873 5872 5871 5871 5870 5869 5869 5868 5867
5894 5894 5893 5893 5893 5893 5893 5893 5892 5892 5891 5891 5890 5889 5889 5888 5888 5887 5886 5885 5884 5883 5882 5881 5880 5879 5878 5878 5876 5875 5874 5873 5872 5871 5870 5869 5868 5867 5866 5866 5865 5864 5863
5894 5894 5894 5894 5893 5893 5893 5892 5892 5891 5890 5890 5889 5889 5888 5887 5887 5886 5885 5884 5883 5882 5880 5879 5878 5877 5876 5875 5874 5872 5871 5870 5869 5868 5867 5866 5865 5864 5863 5862 5861 5860 5859
5894 5894 5894 5894 5893 5893 5893 5892 5892 5891 5890 5889 5889 5888 5887 5886 5885 5884 5883 5882 5881 5880 5878 5877 5876 5874 5873 5872 5871 5870 5869 5867 5866 5865 5863 5862 5861 5860 5859 5858 5857 5856 5855
5894 5894 5893 5893 5893 5893 5892 5892 5891 5890 5889 5889 5888 5887 5886 5885 5884 5883 5882 5880 5879 5878 5876 5875 5873 5872 5871 5870 5868 5867 5866 5864 5863 5861 5860 5859 5858 5857 5855 5854 5853 5852 5851
5894 5894 5893 5893 5892 5892 5891 5890 5890 5889 5888 5887 5886 5886 5884 5883 5882 5881 5879 5878 5876 5875 5874 5872 5871 5869 5868 5867 5866 5864 5863 5861 5860 5858 5857 5856 5854 5853 5852 5850 5849 5848 5846
5894 5893 5893 5892 5892 5891 5890 5889 5889 5888 5887 5886 5885 5884 5883 5881 5880 5878 5877 5875 5874 5872 5871 5870 5868 5867 5865 5864 5863 5861 5860 5858 5856 5855 5854 5852 5851 5849 5848 5847 5845 5844 5842
5894 5893 5892 5891 5891 5890 5889 5888 5887 5887 5886 5884 5883 5882 5881 5879 5878 5876 5875 5873 5871 5870 5868 5867 5865 5864 5862 5861 5859 5858 5856 5855 5853 5851 5850 5848 5847 5846 5844 5843 5841 5839 5838
5893 5892 5891 5890 5890 5889 5888 5887 5886 5885 5884 5883 5881 5880 5879 5878 5876 5874 5872 5870 5869 5867 5866 5864 5862 5861 5859 5858 5856 5855 5853 5851 5850 5848 5846 5845 5843 5842 5840 5838 5837 5835 5833
5892 5891 5890 5890 5889 5888 5887 5886 5885 5884 5883 5881 5880 5878 5877 5875 5874 5872 5870 5868 5866 5864 5863 5861 5859 5857 5856 5854 5853 5851 5849 5847 5846 5844 5842 5841 5839 5837 5836 5834 5832 5830 5828
5891 5890 5889 5888 5888 5887 5886 5885 5883 5882 5880 5879 5877 5876 5874 5872 5871 5869 5867 5865 5863 5861 5860 5858 5856 5854 5852 5850 5849 5847 5845 5843 5841 5839 5837 5836 5834 5832 5831 5829 5827 5825 5823
5889 5888 5888 5887 5886 5885 5884 5883 5881 5880 5878 5876 5875 5873 5871 5869 5867 5865 5864 5862 5860 5858 5856 5854 5852 5850 5848 5846 5844 5842 5840 5838 5836 5834 5832 5831 5829 5827 5825 5823 5822 5820 5818
5887 5886 5885 5885 5884 5883 5882 5880 5879 5877 5876 5874 5872 5870 5868 5865 5863 5861 5860 5858 5856 5854 5852 5850 5848 5846 5844 5841 5839 5837 5835 5833 5831 5829 5827 5825 5823 5821 5820 5818 5815 5813 5812
5884 5883 5882 5882 5881 5879 5878 5877 5876 5874 5873 5871 5869 5867 5865 5863 5860 5858 5856 5854 5852 5849 5847 5845 5842 5840 5838 5836 5834 5832 5830 5828 5825 5824 5821 5819 5817 5815 5813 5811 5809 5807 5805
5881 5880 5879 5878 5877 5876 5875 5874 5872 5871 5869 5867 5865 5863 5861 5859 5856 5854 5852 5849 5847 5844 5842 5840 5837 5835 5832 5830 5828 5826 5824 5821 5819 5817 5815 5813 5811 5809 5807 5805 5802 5800 5798
5876 5876 5875 5874 5873 5872 5870 5869 5868 5866 5865 5863 5861 5858 5856 5854 5852 5849 5847 5844 5842 5839 5837 5834 5832 5829 5827 5824 5822 5820 5818 5815 5813 5810 5808 5806 5804 5802 5800 5797 5795 5792 5790
5871 5871 5870 5869 5868 5867 5865 5864 5862 5861 5859 5857 5855 5853 5850 5848 5846 5844 5841 5839 5836 5834 5831 5828 5825 5823 5821 5818 5816 5813 5811 5809 5806 5804 5801 5799 5797 5795 5792 5789 5787 5784 5782
5866 5865 5864 5863 5862 5861 5860 5858 5856 5855 5853 5851 5849 5847 5844 5842 5840 5837 5835 5832 5830 5827 5825 5822 5819 5817 5814 5812 5809 5807 5804 5802 5799 5797 5794 5792 5789 5787 5785 5782 5779 5776 5774